{"data":{"norad_id":44547,"epoch":"2026-05-25T03:43:10.399008Z","epoch_age_seconds":57511,"freshness":"FRESH","line1":"1 44547U 19063A   26145.15498147  .00000273  00000+0  11593-3 0  9993","line2":"2 44547  98.4125 156.2715 0004956 212.1872 147.9010 14.32688891348578","mean_motion":14.32688891,"eccentricity":0.0004956,"inclination_deg":98.4125,"raan_deg":156.2715,"arg_perigee_deg":212.1872,"mean_anomaly_deg":147.901,"bstar":0.00011593,"rev_number":34857,"period_min":100.51030681161,"perigee_km":779.20807152374,"apogee_km":786.30594966704,"semimajor_km":7160.8940105954,"source":"CELESTRAK","updated_at":"2026-05-25T13:37:56.002926Z"}}